Time,TemperatureF,DewpointF,PressureIn,WindDirection,WindDirectionDegrees,WindSpeedMPH,WindSpeedGustMPH,Humidity,HourlyPrecipIn,Conditions,Clouds,dailyrainin,SoftwareType,DateUTC
2013-05-26 00:00:00,50.2,48.2,28.79,ESE,112,14.8,17.9,93,0.00,,,0.00,VWS V14.01,2013-05-26 05:00:00,
2013-05-26 00:05:00,50.2,48.2,28.79,ESE,112,18.1,22.8,93,0.00,,,0.00,VWS V14.01,2013-05-26 05:05:00,
2013-05-26 00:10:00,50.2,48.2,28.79,SE,135,15.2,22.6,93,0.00,,,0.00,VWS V14.01,2013-05-26 05:10:00,
2013-05-26 00:15:00,50.2,48.0,28.79,SE,135,17.9,23.7,92,0.00,,,0.00,VWS V14.01,2013-05-26 05:15:00,
2013-05-26 00:20:00,50.2,48.0,28.79,SE,135,15.7,20.1,92,0.00,,,0.00,VWS V14.01,2013-05-26 05:20:00,
2013-05-26 00:25:00,50.2,48.0,28.79,ESE,112,19.9,20.1,92,0.00,,,0.00,VWS V14.01,2013-05-26 05:25:00,
2013-05-26 00:30:00,50.2,48.0,28.79,ESE,112,15.4,22.2,92,0.00,,,0.00,VWS V14.01,2013-05-26 05:30:00,
2013-05-26 00:35:00,50.2,48.0,28.79,ESE,112,12.8,21.3,92,0.00,,,0.00,VWS V14.01,2013-05-26 05:35:00,
2013-05-26 00:40:00,50.2,48.2,28.79,ESE,112,15.2,17.2,93,0.00,,,0.00,VWS V14.01,2013-05-26 05:40:00,
2013-05-26 00:45:00,50.2,48.2,28.79,ESE,112,18.1,19.5,93,0.00,,,0.00,VWS V14.01,2013-05-26 05:45:00,
2013-05-26 00:50:00,50.2,48.0,28.79,ESE,112,15.2,19.7,92,0.00,,,0.00,VWS V14.01,2013-05-26 05:50:00,
2013-05-26 00:55:00,50.2,48.0,28.79,ESE,112,10.7,19.9,92,0.00,,,0.00,VWS V14.01,2013-05-26 05:55:00,
2013-05-26 01:00:00,50.2,48.0,28.79,ESE,112,19.0,19.0,92,0.00,,,0.00,VWS V14.01,2013-05-26 06:00:00,
2013-05-26 01:05:00,50.2,48.0,28.79,ESE,112,11.2,19.9,92,0.00,,,0.00,VWS V14.01,2013-05-26 06:05:00,
2013-05-26 01:10:00,50.2,47.7,28.79,ESE,112,15.7,15.7,91,0.00,,,0.00,VWS V14.01,2013-05-26 06:10:00,
2013-05-26 01:15:00,50.2,47.7,28.79,ESE,112,14.5,19.9,91,0.00,,,0.00,VWS V14.01,2013-05-26 06:15:00,
2013-05-26 01:20:00,50.2,47.7,28.79,SE,135,14.1,17.7,91,0.00,,,0.00,VWS V14.01,2013-05-26 06:20:00,
2013-05-26 01:25:00,50.2,47.7,28.79,ESE,112,12.3,19.7,91,0.00,,,0.00,VWS V14.01,2013-05-26 06:25:00,
2013-05-26 01:30:00,50.2,47.7,28.79,ESE,112,16.8,18.6,91,0.00,,,0.00,VWS V14.01,2013-05-26 06:30:00,
2013-05-26 01:35:00,50.2,47.7,28.79,ESE,112,18.8,18.8,91,0.00,,,0.00,VWS V14.01,2013-05-26 06:35:00,
2013-05-26 01:40:00,50.2,47.7,28.76,ESE,112,12.1,19.9,91,0.00,,,0.00,VWS V14.01,2013-05-26 06:40:00,
2013-05-26 01:45:00,50.2,48.0,28.76,ESE,112,14.5,17.7,92,0.00,,,0.00,VWS V14.01,2013-05-26 06:45:00,
2013-05-26 01:50:00,50.2,48.0,28.76,ESE,112,14.8,15.7,92,0.00,,,0.00,VWS V14.01,2013-05-26 06:50:00,
2013-05-26 01:55:00,50.2,48.0,28.76,East,90,13.2,16.3,92,0.00,,,0.00,VWS V14.01,2013-05-26 06:55:00,
2013-05-26 02:00:00,50.2,48.0,28.76,ESE,112,17.2,19.0,92,0.00,,,0.00,VWS V14.01,2013-05-26 07:00:00,
2013-05-26 02:05:00,50.2,48.2,28.76,ESE,112,14.5,17.2,93,0.00,,,0.00,VWS V14.01,2013-05-26 07:05:00,
2013-05-26 02:10:00,50.2,48.2,28.73,ESE,112,14.8,17.5,93,0.00,,,0.00,VWS V14.01,2013-05-26 07:10:00,
2013-05-26 02:15:00,50.2,48.2,28.73,East,90,15.7,19.7,93,0.00,,,0.00,VWS V14.01,2013-05-26 07:15:00,
2013-05-26 02:20:00,50.4,48.4,28.73,ESE,112,11.0,16.3,93,0.00,,,0.00,VWS V14.01,2013-05-26 07:20:00,
2013-05-26 02:25:00,50.4,48.4,28.73,ESE,112,9.8,16.8,93,0.00,,,0.00,VWS V14.01,2013-05-26 07:25:00,
2013-05-26 02:30:00,50.4,48.4,28.73,ESE,112,12.8,22.6,93,0.00,,,0.00,VWS V14.01,2013-05-26 07:30:00,
2013-05-26 02:35:00,50.4,48.4,28.73,ESE,112,17.2,19.9,93,0.00,,,0.00,VWS V14.01,2013-05-26 07:35:00,
2013-05-26 02:40:00,50.4,48.4,28.73,ESE,112,13.6,17.7,93,0.00,,,0.00,VWS V14.01,2013-05-26 07:40:00,
2013-05-26 02:45:00,50.4,48.4,28.73,ESE,112,10.7,18.1,93,0.00,,,0.00,VWS V14.01,2013-05-26 07:45:00,
2013-05-26 02:50:00,50.5,48.6,28.73,ESE,112,10.7,18.6,93,0.00,,,0.00,VWS V14.01,2013-05-26 07:50:00,
2013-05-26 02:55:00,50.5,48.6,28.76,ESE,112,18.6,19.5,93,0.00,,,0.00,VWS V14.01,2013-05-26 07:55:00,
2013-05-26 03:00:00,50.5,48.6,28.76,ESE,112,12.8,18.6,93,0.00,,,0.00,VWS V14.01,2013-05-26 08:00:00,
2013-05-26 03:05:00,50.5,48.6,28.76,ESE,112,15.7,20.1,93,0.00,,,0.00,VWS V14.01,2013-05-26 08:05:00,
2013-05-26 03:10:00,50.5,48.6,28.73,ESE,112,18.1,19.9,93,0.00,,,0.00,VWS V14.01,2013-05-26 08:10:00,
2013-05-26 03:15:00,50.5,48.6,28.73,ESE,112,24.4,24.4,93,0.00,,,0.00,VWS V14.01,2013-05-26 08:15:00,
2013-05-26 03:20:00,50.5,48.9,28.73,ESE,112,16.3,24.4,94,0.00,,,0.00,VWS V14.01,2013-05-26 08:20:00,
2013-05-26 03:25:00,50.5,48.9,28.73,ESE,112,17.7,18.1,94,0.00,,,0.00,VWS V14.01,2013-05-26 08:25:00,
2013-05-26 03:30:00,50.5,48.9,28.73,ESE,112,17.5,18.6,94,0.00,,,0.00,VWS V14.01,2013-05-26 08:30:00,
2013-05-26 03:35:00,50.5,48.9,28.73,ESE,112,13.9,19.7,94,0.00,,,0.00,VWS V14.01,2013-05-26 08:35:00,
2013-05-26 03:40:00,50.7,49.1,28.73,ESE,112,17.9,21.5,94,0.00,,,0.00,VWS V14.01,2013-05-26 08:40:00,
2013-05-26 03:45:00,50.7,49.1,28.73,ESE,112,17.5,20.4,94,0.00,,,0.00,VWS V14.01,2013-05-26 08:45:00,
2013-05-26 03:50:00,50.7,49.1,28.73,ESE,112,18.6,20.4,94,0.00,,,0.00,VWS V14.01,2013-05-26 08:50:00,
2013-05-26 03:55:00,50.7,49.3,28.73,ESE,112,17.7,20.4,95,0.00,,,0.00,VWS V14.01,2013-05-26 08:55:00,
2013-05-26 04:00:00,50.7,49.3,28.73,ESE,112,17.0,20.8,95,0.00,,,0.00,VWS V14.01,2013-05-26 09:00:00,
2013-05-26 04:05:00,50.7,49.3,28.73,ESE,112,17.7,19.2,95,0.00,,,0.00,VWS V14.01,2013-05-26 09:05:00,
2013-05-26 04:10:00,50.9,49.5,28.73,ESE,112,14.8,18.6,95,0.00,,,0.00,VWS V14.01,2013-05-26 09:10:00,
2013-05-26 04:15:00,50.9,49.5,28.73,ESE,112,15.2,17.7,95,0.00,,,0.00,VWS V14.01,2013-05-26 09:15:00,
2013-05-26 04:20:00,51.1,49.4,28.73,ESE,112,16.1,21.0,94,0.00,,,0.00,VWS V14.01,2013-05-26 09:20:00,
2013-05-26 04:25:00,51.1,49.4,28.73,ESE,112,12.5,19.0,94,0.00,,,0.00,VWS V14.01,2013-05-26 09:25:00,
2013-05-26 04:30:00,51.1,49.4,28.73,SE,135,16.8,20.1,94,0.00,,,0.00,VWS V14.01,2013-05-26 09:30:00,
2013-05-26 04:35:00,51.1,49.4,28.73,ESE,112,15.4,19.2,94,0.00,,,0.00,VWS V14.01,2013-05-26 09:35:00,
2013-05-26 04:40:00,51.1,49.4,28.70,ESE,112,14.8,24.2,94,0.00,,,0.00,VWS V14.01,2013-05-26 09:40:00,
2013-05-26 04:45:00,51.3,49.6,28.70,ESE,112,13.0,18.6,94,0.00,,,0.00,VWS V14.01,2013-05-26 09:45:00,
2013-05-26 04:50:00,51.3,49.6,28.70,SE,135,10.5,19.2,94,0.00,,,0.00,VWS V14.01,2013-05-26 09:50:00,
2013-05-26 04:55:00,51.3,49.6,28.73,ESE,112,13.2,19.5,94,0.00,,,0.00,VWS V14.01,2013-05-26 09:55:00,
2013-05-26 05:00:00,51.3,49.9,28.73,ESE,112,15.2,19.0,95,0.00,,,0.00,VWS V14.01,2013-05-26 10:00:00,
2013-05-26 05:05:00,51.4,50.1,28.73,ESE,112,13.9,19.0,95,0.00,,,0.00,VWS V14.01,2013-05-26 10:05:00,
2013-05-26 05:10:00,51.4,50.1,28.73,SE,135,12.8,17.7,95,0.00,,,0.00,VWS V14.01,2013-05-26 10:10:00,
2013-05-26 05:15:00,51.4,50.1,28.73,ESE,112,15.4,21.0,95,0.00,,,0.00,VWS V14.01,2013-05-26 10:15:00,
2013-05-26 05:20:00,51.6,50.2,28.73,SE,135,16.3,20.1,95,0.00,,,0.00,VWS V14.01,2013-05-26 10:20:00,
2013-05-26 05:25:00,51.6,50.2,28.70,ESE,112,15.4,17.5,95,0.00,,,0.00,VWS V14.01,2013-05-26 10:25:00,
2013-05-26 05:30:00,51.6,50.2,28.70,ESE,112,9.0,15.4,95,0.00,,,0.00,VWS V14.01,2013-05-26 10:30:00,
2013-05-26 05:35:00,51.6,50.2,28.70,East,90,11.0,13.9,95,0.00,,,0.00,VWS V14.01,2013-05-26 10:35:00,
2013-05-26 05:40:00,51.6,50.2,28.73,ESE,112,7.4,11.0,95,0.00,,,0.00,VWS V14.01,2013-05-26 10:40:00,
2013-05-26 05:45:00,51.8,50.1,28.73,ENE,68,8.5,10.3,94,0.00,,,0.00,VWS V14.01,2013-05-26 10:45:00,
2013-05-26 05:50:00,51.8,50.1,28.73,East,90,8.5,15.4,94,0.00,,,0.00,VWS V14.01,2013-05-26 10:50:00,
2013-05-26 05:55:00,51.8,50.1,28.73,East,90,10.7,12.5,94,0.00,,,0.00,VWS V14.01,2013-05-26 10:55:00,
2013-05-26 06:00:00,51.8,50.1,28.73,ESE,112,8.7,13.2,94,0.00,,,0.00,VWS V14.01,2013-05-26 11:00:00,
2013-05-26 06:05:00,51.8,50.1,28.73,ESE,112,11.0,12.8,94,0.00,,,0.00,VWS V14.01,2013-05-26 11:05:00,
2013-05-26 06:10:00,51.8,50.1,28.76,ESE,112,7.4,13.2,94,0.00,,,0.00,VWS V14.01,2013-05-26 11:10:00,
2013-05-26 06:15:00,52.0,50.0,28.76,East,90,5.6,12.1,93,0.00,,,0.00,VWS V14.01,2013-05-26 11:15:00,
2013-05-26 06:20:00,51.8,49.8,28.76,ESE,112,8.5,12.8,93,0.00,,,0.00,VWS V14.01,2013-05-26 11:20:00,
2013-05-26 06:25:00,51.8,49.8,28.76,ENE,68,6.7,9.6,93,0.00,,,0.00,VWS V14.01,2013-05-26 11:25:00,
2013-05-26 06:30:00,52.0,50.0,28.76,WNW,292,3.6,7.6,93,0.00,,,0.00,VWS V14.01,2013-05-26 11:30:00,
2013-05-26 06:35:00,52.0,50.0,28.76,NW,315,3.1,5.6,93,0.00,,,0.00,VWS V14.01,2013-05-26 11:35:00,
2013-05-26 06:40:00,52.0,50.0,28.79,NNE,22,3.4,6.0,93,0.00,,,0.00,VWS V14.01,2013-05-26 11:40:00,
2013-05-26 06:45:00,51.8,49.8,28.79,ENE,68,3.8,6.5,93,0.00,,,0.00,VWS V14.01,2013-05-26 11:45:00,
2013-05-26 06:50:00,51.8,49.8,28.79,NNW,338,2.2,9.0,93,0.00,,,0.00,VWS V14.01,2013-05-26 11:50:00,
2013-05-26 06:55:00,51.8,49.8,28.79,NE,45,5.4,5.4,93,0.00,,,0.00,VWS V14.01,2013-05-26 11:55:00,
2013-05-26 07:00:00,51.4,49.8,28.79,ENE,68,12.3,13.0,94,0.00,,,0.00,VWS V14.01,2013-05-26 12:00:00,
2013-05-26 07:05:00,51.3,49.6,28.79,NNE,22,10.3,13.0,94,0.00,,,0.00,VWS V14.01,2013-05-26 12:05:00,
2013-05-26 07:10:00,51.1,49.4,28.82,NE,45,3.8,10.3,94,0.00,,,0.00,VWS V14.01,2013-05-26 12:10:00,
2013-05-26 07:15:00,50.9,49.2,28.82,ENE,68,7.8,7.8,94,0.00,,,0.00,VWS V14.01,2013-05-26 12:15:00,
2013-05-26 07:20:00,50.9,49.5,28.82,NE,45,10.1,10.7,95,0.00,,,0.00,VWS V14.01,2013-05-26 12:20:00,
2013-05-26 07:25:00,50.9,49.5,28.82,NE,45,1.6,10.1,95,0.00,,,0.00,VWS V14.01,2013-05-26 12:25:00,
2013-05-26 07:30:00,50.9,49.8,28.82,NNE,22,3.6,7.6,96,0.00,,,0.00,VWS V14.01,2013-05-26 12:30:00,
2013-05-26 07:35:00,50.9,49.8,28.82,NE,45,9.4,9.4,96,0.00,,,0.00,VWS V14.01,2013-05-26 12:35:00,
2013-05-26 07:40:00,50.9,49.8,28.82,NE,45,9.8,10.5,96,0.00,,,0.00,VWS V14.01,2013-05-26 12:40:00,
2013-05-26 07:45:00,50.9,50.1,28.82,NE,45,7.2,10.3,97,0.00,,,0.00,VWS V14.01,2013-05-26 12:45:00,
2013-05-26 07:50:00,50.9,50.1,28.82,ENE,68,10.3,11.0,97,0.00,,,0.00,VWS V14.01,2013-05-26 12:50:00,
2013-05-26 07:55:00,50.7,49.9,28.79,NE,45,10.7,13.2,97,0.00,,,0.00,VWS V14.01,2013-05-26 12:55:00,
2013-05-26 08:00:00,50.7,50.2,28.79,ENE,68,9.8,13.0,98,0.00,,,0.00,VWS V14.01,2013-05-26 13:00:00,
2013-05-26 08:05:00,50.5,50.0,28.79,ENE,68,16.3,16.8,98,0.04,,,0.04,VWS V14.01,2013-05-26 13:05:00,
2013-05-26 08:10:00,50.5,50.0,28.79,ENE,68,13.2,17.2,98,0.04,,,0.04,VWS V14.01,2013-05-26 13:10:00,
2013-05-26 08:15:00,50.5,50.0,28.79,ENE,68,16.1,17.5,98,0.08,,,0.08,VWS V14.01,2013-05-26 13:15:00,
2013-05-26 08:20:00,50.5,50.0,28.79,ENE,68,13.6,20.1,98,0.08,,,0.08,VWS V14.01,2013-05-26 13:20:00,
2013-05-26 08:25:00,50.5,50.0,28.79,East,90,10.7,17.5,98,0.08,,,0.08,VWS V14.01,2013-05-26 13:25:00,
2013-05-26 08:30:00,50.5,50.0,28.79,ENE,68,10.7,15.4,98,0.08,,,0.08,VWS V14.01,2013-05-26 13:30:00,
2013-05-26 08:35:00,50.5,50.0,28.79,ESE,112,8.1,15.4,98,0.08,,,0.08,VWS V14.01,2013-05-26 13:35:00,
2013-05-26 08:40:00,50.5,50.0,28.79,East,90,13.0,14.5,98,0.08,,,0.08,VWS V14.01,2013-05-26 13:40:00,
2013-05-26 08:45:00,50.5,50.0,28.79,ESE,112,12.5,14.5,98,0.08,,,0.08,VWS V14.01,2013-05-26 13:45:00,
2013-05-26 08:50:00,50.4,49.8,28.79,ENE,68,7.8,14.8,98,0.16,,,0.16,VWS V14.01,2013-05-26 13:50:00,
2013-05-26 08:55:00,50.4,49.8,28.79,ESE,112,16.6,16.6,98,0.20,,,0.20,VWS V14.01,2013-05-26 13:55:00,
2013-05-26 09:00:00,50.4,49.8,28.79,East,90,12.1,19.9,98,0.20,,,0.20,VWS V14.01,2013-05-26 14:00:00,
2013-05-26 09:05:00,50.4,49.8,28.79,East,90,10.1,17.9,98,0.24,,,0.24,VWS V14.01,2013-05-26 14:05:00,
2013-05-26 09:10:00,50.4,49.8,28.76,ENE,68,17.7,17.7,98,0.20,,,0.24,VWS V14.01,2013-05-26 14:10:00,
2013-05-26 09:15:00,50.2,49.6,28.76,East,90,14.8,17.9,98,0.20,,,0.24,VWS V14.01,2013-05-26 14:15:00,
2013-05-26 09:20:00,50.2,49.6,28.76,ESE,112,22.4,24.2,98,0.16,,,0.24,VWS V14.01,2013-05-26 14:20:00,
2013-05-26 09:25:00,50.0,49.5,28.73,ESE,112,18.1,22.6,98,0.16,,,0.24,VWS V14.01,2013-05-26 14:25:00,
2013-05-26 09:30:00,50.0,49.5,28.73,ESE,112,22.8,24.6,98,0.16,,,0.24,VWS V14.01,2013-05-26 14:30:00,
2013-05-26 09:35:00,50.0,49.5,28.73,East,90,14.3,25.5,98,0.16,,,0.24,VWS V14.01,2013-05-26 14:35:00,
2013-05-26 09:40:00,50.0,49.5,28.70,East,90,23.7,24.4,98,0.16,,,0.24,VWS V14.01,2013-05-26 14:40:00,
2013-05-26 09:45:00,50.2,49.6,28.70,ESE,112,29.5,32.0,98,0.16,,,0.24,VWS V14.01,2013-05-26 14:45:00,
2013-05-26 09:50:00,50.2,49.6,28.70,ESE,112,21.9,31.1,98,0.16,,,0.24,VWS V14.01,2013-05-26 14:50:00,
2013-05-26 09:55:00,50.5,50.0,28.67,ESE,112,26.9,29.8,98,0.08,,,0.24,VWS V14.01,2013-05-26 14:55:00,
2013-05-26 10:00:00,50.9,50.4,28.67,ESE,112,26.4,32.0,98,0.04,,,0.24,VWS V14.01,2013-05-26 15:00:00,
2013-05-26 10:05:00,51.1,50.3,28.67,ESE,112,21.5,28.0,97,0.04,,,0.24,VWS V14.01,2013-05-26 15:05:00,
2013-05-26 10:10:00,51.3,50.4,28.67,SE,135,17.9,27.7,97,0.00,,,0.24,VWS V14.01,2013-05-26 15:10:00,
2013-05-26 10:15:00,51.6,50.5,28.67,SE,135,24.2,28.9,96,0.00,,,0.24,VWS V14.01,2013-05-26 15:15:00,
2013-05-26 10:20:00,52.0,50.3,28.67,ESE,112,26.0,26.6,94,0.00,,,0.24,VWS V14.01,2013-05-26 15:20:00,
2013-05-26 10:25:00,52.9,51.5,28.67,SE,135,23.5,29.8,95,0.00,,,0.24,VWS V14.01,2013-05-26 15:25:00,
2013-05-26 10:30:00,53.6,51.3,28.67,SE,135,27.7,33.1,92,0.00,,,0.24,VWS V14.01,2013-05-26 15:30:00,
2013-05-26 10:35:00,54.5,51.3,28.67,ESE,112,25.3,28.4,89,0.00,,,0.24,VWS V14.01,2013-05-26 15:35:00,
2013-05-26 10:40:00,55.2,51.4,28.67,SE,135,24.4,27.5,87,0.00,,,0.24,VWS V14.01,2013-05-26 15:40:00,
2013-05-26 10:45:00,55.4,51.0,28.67,ESE,112,26.6,32.4,85,0.00,,,0.24,VWS V14.01,2013-05-26 15:45:00,
2013-05-26 10:50:00,56.5,52.0,28.67,SE,135,22.6,33.8,85,0.00,,,0.24,VWS V14.01,2013-05-26 15:50:00,
2013-05-26 10:55:00,56.7,51.6,28.67,ESE,112,21.9,30.9,83,0.00,,,0.24,VWS V14.01,2013-05-26 15:55:00,
2013-05-26 11:00:00,57.0,51.3,28.67,SE,135,28.4,30.2,81,0.00,,,0.24,VWS V14.01,2013-05-26 16:00:00,
2013-05-26 11:05:00,57.4,51.3,28.67,ESE,112,26.4,29.1,80,0.00,,,0.24,VWS V14.01,2013-05-26 16:05:00,
2013-05-26 11:10:00,58.1,52.3,28.67,SSE,158,23.5,27.3,81,0.00,,,0.24,VWS V14.01,2013-05-26 16:10:00,
2013-05-26 11:15:00,58.3,52.2,28.67,SE,135,16.8,29.8,80,0.00,,,0.24,VWS V14.01,2013-05-26 16:15:00,
2013-05-26 11:20:00,58.8,52.7,28.67,SE,135,24.2,29.5,80,0.00,,,0.24,VWS V14.01,2013-05-26 16:20:00,
2013-05-26 11:25:00,59.4,52.9,28.70,SSE,158,22.8,26.6,79,0.00,,,0.24,VWS V14.01,2013-05-26 16:25:00,
2013-05-26 11:30:00,60.3,53.0,28.70,SE,135,27.7,28.9,77,0.00,,,0.24,VWS V14.01,2013-05-26 16:30:00,
2013-05-26 11:35:00,60.1,52.5,28.70,SE,135,23.3,27.7,76,0.00,,,0.24,VWS V14.01,2013-05-26 16:35:00,
2013-05-26 11:40:00,59.7,51.4,28.70,SE,135,23.0,29.8,74,0.00,,,0.24,VWS V14.01,2013-05-26 16:40:00,
2013-05-26 11:45:00,60.1,52.9,28.70,SE,135,22.4,29.3,77,0.00,,,0.24,VWS V14.01,2013-05-26 16:45:00,
2013-05-26 11:50:00,60.1,52.5,28.70,SSE,158,26.4,30.9,76,0.00,,,0.24,VWS V14.01,2013-05-26 16:50:00,
2013-05-26 11:55:00,59.9,52.7,28.70,SE,135,28.4,29.8,77,0.00,,,0.24,VWS V14.01,2013-05-26 16:55:00,
2013-05-26 12:00:00,59.9,53.0,28.70,SSE,158,22.4,28.4,78,0.00,,,0.24,VWS V14.01,2013-05-26 17:00:00,
2013-05-26 12:05:00,59.7,52.5,28.70,SE,135,16.6,24.4,77,0.00,,,0.24,VWS V14.01,2013-05-26 17:05:00,
2013-05-26 12:10:00,59.4,52.2,28.73,SE,135,8.1,17.7,77,0.00,,,0.24,VWS V14.01,2013-05-26 17:10:00,
2013-05-26 12:15:00,59.4,52.2,28.73,ESE,112,8.1,10.3,77,0.00,,,0.24,VWS V14.01,2013-05-26 17:15:00,
2013-05-26 12:20:00,59.2,52.7,28.73,ESE,112,8.5,10.1,79,0.00,,,0.24,VWS V14.01,2013-05-26 17:20:00,
2013-05-26 12:25:00,59.2,53.0,28.76,SE,135,6.5,10.1,80,0.00,,,0.24,VWS V14.01,2013-05-26 17:25:00,
2013-05-26 12:30:00,59.2,53.0,28.76,ENE,68,3.8,6.5,80,0.00,,,0.24,VWS V14.01,2013-05-26 17:30:00,
2013-05-26 12:35:00,59.2,53.0,28.76,ESE,112,5.4,8.1,80,0.00,,,0.24,VWS V14.01,2013-05-26 17:35:00,
2013-05-26 12:40:00,59.0,52.5,28.76,East,90,2.9,7.8,79,0.00,,,0.24,VWS V14.01,2013-05-26 17:40:00,
2013-05-26 12:45:00,59.2,53.0,28.76,ESE,112,2.0,3.8,80,0.00,,,0.24,VWS V14.01,2013-05-26 17:45:00,
2013-05-26 12:50:00,59.0,52.8,28.76,SE,135,4.9,4.9,80,0.00,,,0.24,VWS V14.01,2013-05-26 17:50:00,
2013-05-26 12:55:00,59.0,53.2,28.76,ESE,112,3.1,6.3,81,0.00,,,0.24,VWS V14.01,2013-05-26 17:55:00,
2013-05-26 13:00:00,59.0,53.2,28.76,WSW,248,5.4,5.4,81,0.00,,,0.24,VWS V14.01,2013-05-26 18:00:00,
2013-05-26 13:05:00,59.0,53.8,28.76,West,270,9.8,9.8,83,0.00,,,0.24,VWS V14.01,2013-05-26 18:05:00,
2013-05-26 13:10:00,58.6,53.8,28.79,West,270,10.1,11.2,84,0.05,,,0.29,VWS V14.01,2013-05-26 18:10:00,
2013-05-26 13:15:00,58.3,54.1,28.79,WNW,292,13.2,13.2,86,0.09,,,0.33,VWS V14.01,2013-05-26 18:15:00,
2013-05-26 13:20:00,57.9,54.4,28.79,SSW,202,5.8,15.2,88,0.17,,,0.41,VWS V14.01,2013-05-26 18:20:00,
2013-05-26 13:25:00,57.6,54.3,28.82,NNE,22,2.0,6.3,89,0.38,,,0.62,VWS V14.01,2013-05-26 18:25:00,
2013-05-26 13:30:00,57.6,54.7,28.82,ESE,112,8.5,12.1,90,0.50,,,0.74,VWS V14.01,2013-05-26 18:30:00,
2013-05-26 13:35:00,57.2,55.2,28.82,ESE,112,14.3,15.2,93,0.59,,,0.83,VWS V14.01,2013-05-26 18:35:00,
2013-05-26 13:40:00,57.2,55.5,28.70,ENE,68,14.3,19.5,94,0.63,,,0.87,VWS V14.01,2013-05-26 18:40:00,
2013-05-26 13:45:00,57.2,56.1,28.70,ESE,112,19.9,23.0,96,0.63,,,0.87,VWS V14.01,2013-05-26 18:45:00,
2013-05-26 13:50:00,57.0,56.2,28.70,East,90,21.3,29.1,97,0.67,,,0.91,VWS V14.01,2013-05-26 18:50:00,
2013-05-26 13:55:00,57.2,56.4,28.64,ESE,112,23.5,25.1,97,0.67,,,0.91,VWS V14.01,2013-05-26 18:55:00,
2013-05-26 14:00:00,57.4,56.8,28.64,ESE,112,19.9,25.3,98,0.67,,,0.91,VWS V14.01,2013-05-26 19:00:00,
2013-05-26 14:05:00,57.6,56.7,28.64,ESE,112,16.3,23.7,97,0.67,,,0.91,VWS V14.01,2013-05-26 19:05:00,
2013-05-26 14:10:00,58.1,56.4,28.61,SSE,158,20.6,21.5,94,0.67,,,0.91,VWS V14.01,2013-05-26 19:10:00,
2013-05-26 14:15:00,58.1,56.1,28.61,SE,135,20.4,25.7,93,0.62,,,0.91,VWS V14.01,2013-05-26 19:15:00,
2013-05-26 14:20:00,58.1,55.8,28.61,SSE,158,18.6,30.7,92,0.58,,,0.91,VWS V14.01,2013-05-26 19:20:00,
2013-05-26 14:25:00,58.1,56.1,28.64,SE,135,18.1,30.7,93,0.50,,,0.91,VWS V14.01,2013-05-26 19:25:00,
2013-05-26 14:30:00,58.1,56.4,28.64,SE,135,17.7,30.2,94,0.29,,,0.91,VWS V14.01,2013-05-26 19:30:00,
2013-05-26 14:35:00,58.5,57.0,28.64,SSE,158,19.9,24.4,95,0.17,,,0.91,VWS V14.01,2013-05-26 19:35:00,
2013-05-26 14:40:00,58.6,56.9,28.67,SSE,158,19.2,25.5,94,0.08,,,0.91,VWS V14.01,2013-05-26 19:40:00,
2013-05-26 14:45:00,59.2,57.5,28.67,SSE,158,13.6,21.0,94,0.04,,,0.91,VWS V14.01,2013-05-26 19:45:00,
2013-05-26 14:50:00,60.1,58.3,28.67,NW,315,1.3,13.6,94,0.04,,,0.91,VWS V14.01,2013-05-26 19:50:00,
2013-05-26 14:55:00,60.4,58.7,28.70,NNW,338,6.3,6.3,94,0.00,,,0.91,VWS V14.01,2013-05-26 19:55:00,
2013-05-26 15:00:00,61.0,58.6,28.70,WNW,292,4.0,6.3,92,0.00,,,0.91,VWS V14.01,2013-05-26 20:00:00,
2013-05-26 15:05:00,61.2,57.6,28.70,West,270,5.8,7.4,88,0.00,,,0.91,VWS V14.01,2013-05-26 20:05:00,
2013-05-26 15:10:00,61.7,56.8,28.70,SSW,202,3.1,5.8,84,0.00,,,0.91,VWS V14.01,2013-05-26 20:10:00,
2013-05-26 15:15:00,61.9,56.0,28.70,SE,135,8.7,8.7,81,0.00,,,0.91,VWS V14.01,2013-05-26 20:15:00,
2013-05-26 15:20:00,61.3,55.1,28.70,SSE,158,11.9,12.5,80,0.00,,,0.91,VWS V14.01,2013-05-26 20:20:00,
2013-05-26 15:25:00,60.8,54.6,28.70,SSE,158,15.7,17.7,80,0.00,,,0.91,VWS V14.01,2013-05-26 20:25:00,
2013-05-26 15:30:00,60.4,54.6,28.70,SSE,158,8.1,15.7,81,0.00,,,0.91,VWS V14.01,2013-05-26 20:30:00,
2013-05-26 15:35:00,60.3,54.8,28.70,SSW,202,6.5,10.7,82,0.00,,,0.91,VWS V14.01,2013-05-26 20:35:00,
2013-05-26 15:40:00,60.1,54.9,28.70,South,180,10.1,11.4,83,0.00,,,0.91,VWS V14.01,2013-05-26 20:40:00,
2013-05-26 15:45:00,60.1,54.9,28.70,South,180,10.1,11.2,83,0.00,,,0.91,VWS V14.01,2013-05-26 20:45:00,
2013-05-26 15:50:00,59.9,55.1,28.70,SSE,158,3.1,10.1,84,0.00,,,0.91,VWS V14.01,2013-05-26 20:50:00,
2013-05-26 15:55:00,59.9,55.1,28.70,SSE,158,0.0,3.8,84,0.00,,,0.91,VWS V14.01,2013-05-26 20:55:00,
2013-05-26 16:00:00,59.9,55.4,28.70,SSW,202,2.5,2.9,85,0.00,,,0.91,VWS V14.01,2013-05-26 21:00:00,
2013-05-26 16:05:00,59.7,55.5,28.70,SE,135,7.4,7.4,86,0.00,,,0.91,VWS V14.01,2013-05-26 21:05:00,
2013-05-26 16:10:00,59.7,56.2,28.67,SSE,158,12.8,12.8,88,0.00,,,0.91,VWS V14.01,2013-05-26 21:10:00,
2013-05-26 16:15:00,59.5,56.3,28.67,SSE,158,13.0,15.2,89,0.00,,,0.91,VWS V14.01,2013-05-26 21:15:00,
2013-05-26 16:20:00,59.4,56.4,28.67,ESE,112,23.3,23.3,90,0.00,,,0.91,VWS V14.01,2013-05-26 21:20:00,
2013-05-26 16:25:00,59.2,56.2,28.55,SE,135,25.5,26.6,90,0.00,,,0.91,VWS V14.01,2013-05-26 21:25:00,
2013-05-26 16:30:00,59.2,56.0,28.55,SE,135,35.1,36.7,89,0.00,,,0.91,VWS V14.01,2013-05-26 21:30:00,
2013-05-26 16:35:00,59.2,55.9,28.55,SSE,158,23.7,39.8,89,0.00,,,0.91,VWS V14.01,2013-05-26 21:35:00,
2013-05-26 16:40:00,59.4,56.1,28.55,SE,135,22.4,26.9,89,0.00,,,0.91,VWS V14.01,2013-05-26 21:40:00,
2013-05-26 16:45:00,59.5,56.3,28.55,SSE,158,22.4,27.5,89,0.00,,,0.91,VWS V14.01,2013-05-26 21:45:00,
2013-05-26 16:50:00,59.5,56.3,28.55,SSE,158,26.0,32.7,89,0.00,,,0.91,VWS V14.01,2013-05-26 21:50:00,
2013-05-26 16:55:00,59.4,56.1,28.52,SSE,158,24.4,35.8,89,0.00,,,0.91,VWS V14.01,2013-05-26 21:55:00,
2013-05-26 17:00:00,59.2,55.6,28.52,SSE,158,25.7,32.2,88,0.00,,,0.91,VWS V14.01,2013-05-26 22:00:00,
2013-05-26 17:05:00,59.2,55.6,28.52,SSE,158,27.1,35.1,88,0.00,,,0.91,VWS V14.01,2013-05-26 22:05:00,
2013-05-26 17:10:00,59.2,55.3,28.58,NNW,338,6.3,27.1,87,0.00,,,0.91,VWS V14.01,2013-05-26 22:10:00,
2013-05-26 17:15:00,59.2,55.6,28.58,West,270,2.0,11.2,88,0.00,,,0.91,VWS V14.01,2013-05-26 22:15:00,
2013-05-26 17:20:00,59.4,56.1,28.58,NNW,338,2.9,6.0,89,0.00,,,0.91,VWS V14.01,2013-05-26 22:20:00,
2013-05-26 17:25:00,59.9,57.0,28.67,NNE,22,7.8,13.0,90,0.00,,,0.91,VWS V14.01,2013-05-26 22:25:00,
2013-05-26 17:30:00,60.3,57.3,28.67,NNW,338,4.0,10.7,90,0.00,,,0.91,VWS V14.01,2013-05-26 22:30:00,
2013-05-26 17:35:00,60.1,56.8,28.67,ENE,68,3.8,4.3,89,0.00,,,0.91,VWS V14.01,2013-05-26 22:35:00,
2013-05-26 17:40:00,60.1,56.2,28.67,ESE,112,3.1,4.9,87,0.00,,,0.91,VWS V14.01,2013-05-26 22:40:00,
2013-05-26 17:45:00,60.1,56.2,28.67,East,90,5.4,5.4,87,0.00,,,0.91,VWS V14.01,2013-05-26 22:45:00,
2013-05-26 17:50:00,59.9,56.0,28.67,NNE,22,7.6,10.7,87,0.00,,,0.91,VWS V14.01,2013-05-26 22:50:00,
2013-05-26 17:55:00,59.5,55.7,28.64,NE,45,3.8,9.8,87,0.00,,,0.91,VWS V14.01,2013-05-26 22:55:00,
2013-05-26 18:00:00,59.2,55.3,28.64,NNE,22,7.4,9.4,87,0.00,,,0.91,VWS V14.01,2013-05-26 23:00:00,
2013-05-26 18:05:00,59.0,55.1,28.64,NE,45,5.6,9.2,87,0.00,,,0.91,VWS V14.01,2013-05-26 23:05:00,
2013-05-26 18:10:00,58.8,55.6,28.67,NE,45,9.8,10.1,89,0.00,,,0.91,VWS V14.01,2013-05-26 23:10:00,
2013-05-26 18:15:00,58.6,55.7,28.67,ENE,68,8.7,12.8,90,0.00,,,0.91,VWS V14.01,2013-05-26 23:15:00,
2013-05-26 18:20:00,58.5,55.5,28.67,ENE,68,12.5,14.8,90,0.00,,,0.91,VWS V14.01,2013-05-26 23:20:00,
2013-05-26 18:25:00,58.3,55.7,28.64,ENE,68,9.8,18.1,91,0.00,,,0.91,VWS V14.01,2013-05-26 23:25:00,
2013-05-26 18:30:00,58.1,55.5,28.64,ENE,68,15.4,17.9,91,0.00,,,0.91,VWS V14.01,2013-05-26 23:30:00,
2013-05-26 18:35:00,58.1,55.5,28.64,NE,45,13.2,17.2,91,0.00,,,0.91,VWS V14.01,2013-05-26 23:35:00,
2013-05-26 18:40:00,58.1,55.8,28.67,NE,45,15.4,15.7,92,0.00,,,0.91,VWS V14.01,2013-05-26 23:40:00,
2013-05-26 18:45:00,57.9,55.3,28.67,NE,45,17.7,17.7,91,0.00,,,0.91,VWS V14.01,2013-05-26 23:45:00,
2013-05-26 18:50:00,57.6,55.0,28.67,NE,45,13.4,17.7,91,0.00,,,0.91,VWS V14.01,2013-05-26 23:50:00,
2013-05-26 18:55:00,57.4,54.8,28.67,NE,45,13.6,17.9,91,0.00,,,0.91,VWS V14.01,2013-05-26 23:55:00,
2013-05-26 19:00:00,57.2,54.6,28.67,ENE,68,17.0,17.7,91,0.00,,,0.91,VWS V14.01,2013-05-27 00:00:00,
2013-05-26 19:05:00,57.0,54.7,28.67,NE,45,17.5,17.9,92,0.00,,,0.91,VWS V14.01,2013-05-27 00:05:00,
2013-05-26 19:10:00,56.8,54.8,28.67,NE,45,12.1,19.5,93,0.00,,,0.91,VWS V14.01,2013-05-27 00:10:00,
2013-05-26 19:15:00,56.7,54.7,28.67,ENE,68,13.0,19.7,93,0.00,,,0.91,VWS V14.01,2013-05-27 00:15:00,
2013-05-26 19:20:00,56.7,55.0,28.67,NE,45,15.9,18.8,94,0.00,,,0.91,VWS V14.01,2013-05-27 00:20:00,
2013-05-26 19:25:00,56.7,55.0,28.64,ENE,68,17.7,19.9,94,0.00,,,0.91,VWS V14.01,2013-05-27 00:25:00,
2013-05-26 19:30:00,56.5,55.1,28.64,ENE,68,15.2,19.9,95,0.00,,,0.91,VWS V14.01,2013-05-27 00:30:00,
2013-05-26 19:35:00,56.3,54.9,28.64,ENE,68,17.5,20.6,95,0.00,,,0.91,VWS V14.01,2013-05-27 00:35:00,
2013-05-26 19:40:00,55.9,54.5,28.64,ENE,68,22.4,22.4,95,0.00,,,0.91,VWS V14.01,2013-05-27 00:40:00,
2013-05-26 19:45:00,55.8,54.3,28.64,ENE,68,23.7,23.7,95,0.00,,,0.91,VWS V14.01,2013-05-27 00:45:00,
2013-05-26 19:50:00,55.6,54.2,28.64,ENE,68,17.7,23.7,95,0.00,,,0.91,VWS V14.01,2013-05-27 00:50:00,
2013-05-26 19:55:00,55.4,54.0,28.64,ENE,68,20.8,23.3,95,0.00,,,0.91,VWS V14.01,2013-05-27 00:55:00,
2013-05-26 20:00:00,55.2,54.1,28.64,ENE,68,17.9,24.2,96,0.00,,,0.91,VWS V14.01,2013-05-27 01:00:00,
2013-05-26 20:05:00,54.9,53.7,28.64,ENE,68,18.8,23.9,96,0.00,,,0.91,VWS V14.01,2013-05-27 01:05:00,
2013-05-26 20:10:00,54.9,53.7,28.64,ENE,68,22.8,23.5,96,0.00,,,0.91,VWS V14.01,2013-05-27 01:10:00,
2013-05-26 20:15:00,54.9,54.0,28.64,ENE,68,19.5,25.3,97,0.00,,,0.91,VWS V14.01,2013-05-27 01:15:00,
2013-05-26 20:20:00,54.9,54.0,28.64,ENE,68,15.7,23.0,97,0.00,,,0.91,VWS V14.01,2013-05-27 01:20:00,
2013-05-26 20:25:00,54.9,54.3,28.64,ENE,68,17.7,20.4,98,0.00,,,0.91,VWS V14.01,2013-05-27 01:25:00,
2013-05-26 20:30:00,54.9,54.3,28.64,East,90,19.7,22.4,98,0.00,,,0.91,VWS V14.01,2013-05-27 01:30:00,
2013-05-26 20:35:00,54.9,54.3,28.64,ENE,68,15.7,19.7,98,0.00,,,0.91,VWS V14.01,2013-05-27 01:35:00,
2013-05-26 20:40:00,54.7,54.1,28.64,ENE,68,18.8,21.0,98,0.00,,,0.91,VWS V14.01,2013-05-27 01:40:00,
2013-05-26 20:45:00,54.7,54.1,28.64,ENE,68,17.0,19.9,98,0.00,,,0.91,VWS V14.01,2013-05-27 01:45:00,
2013-05-26 20:50:00,54.7,54.1,28.64,ENE,68,12.3,18.1,98,0.00,,,0.91,VWS V14.01,2013-05-27 01:50:00,
2013-05-26 20:55:00,54.7,54.1,28.64,ENE,68,15.9,22.2,98,0.00,,,0.91,VWS V14.01,2013-05-27 01:55:00,
2013-05-26 21:00:00,54.7,54.1,28.64,East,90,17.7,19.5,98,0.00,,,0.91,VWS V14.01,2013-05-27 02:00:00,
2013-05-26 21:05:00,54.5,54.0,28.64,ENE,68,17.5,20.4,98,0.00,,,0.91,VWS V14.01,2013-05-27 02:05:00,
2013-05-26 21:10:00,54.5,54.0,28.67,ENE,68,16.3,19.7,98,0.00,,,0.91,VWS V14.01,2013-05-27 02:10:00,
2013-05-26 21:15:00,54.5,54.0,28.67,ENE,68,16.6,22.4,98,0.00,,,0.91,VWS V14.01,2013-05-27 02:15:00,
2013-05-26 21:20:00,54.5,54.0,28.67,ENE,68,17.5,20.8,98,0.00,,,0.91,VWS V14.01,2013-05-27 02:20:00,
2013-05-26 21:25:00,54.5,54.0,28.67,ENE,68,11.0,18.6,98,0.00,,,0.91,VWS V14.01,2013-05-27 02:25:00,
2013-05-26 21:30:00,54.3,53.8,28.67,ENE,68,17.5,20.4,98,0.00,,,0.91,VWS V14.01,2013-05-27 02:30:00,
2013-05-26 21:35:00,54.3,53.8,28.67,ENE,68,17.7,21.3,98,0.00,,,0.91,VWS V14.01,2013-05-27 02:35:00,
2013-05-26 21:40:00,54.1,53.6,28.64,ENE,68,15.2,19.7,98,0.00,,,0.91,VWS V14.01,2013-05-27 02:40:00,
2013-05-26 21:45:00,54.1,53.6,28.64,East,90,22.8,22.8,98,0.00,,,0.91,VWS V14.01,2013-05-27 02:45:00,
2013-05-26 21:50:00,54.1,53.6,28.64,ENE,68,19.2,22.8,98,0.00,,,0.91,VWS V14.01,2013-05-27 02:50:00,
2013-05-26 21:55:00,54.3,53.8,28.64,East,90,17.7,22.4,98,0.00,,,0.91,VWS V14.01,2013-05-27 02:55:00,
2013-05-26 22:00:00,54.3,53.8,28.64,ENE,68,15.2,20.1,98,0.00,,,0.91,VWS V14.01,2013-05-27 03:00:00,
2013-05-26 22:05:00,54.5,54.0,28.64,ENE,68,13.0,19.2,98,0.00,,,0.91,VWS V14.01,2013-05-27 03:05:00,
2013-05-26 22:10:00,54.5,54.0,28.70,ENE,68,10.7,15.2,98,0.00,,,0.91,VWS V14.01,2013-05-27 03:10:00,
2013-05-26 22:15:00,54.5,54.0,28.70,ENE,68,15.2,15.4,98,0.00,,,0.91,VWS V14.01,2013-05-27 03:15:00,
2013-05-26 22:20:00,54.3,53.8,28.70,ENE,68,12.8,17.2,98,0.00,,,0.91,VWS V14.01,2013-05-27 03:20:00,
2013-05-26 22:25:00,54.5,54.0,28.67,ENE,68,11.0,19.7,98,0.00,,,0.91,VWS V14.01,2013-05-27 03:25:00,
2013-05-26 22:30:00,54.5,54.0,28.67,ENE,68,17.9,19.2,98,0.00,,,0.91,VWS V14.01,2013-05-27 03:30:00,
2013-05-26 22:35:00,54.5,54.0,28.67,ENE,68,15.7,20.4,98,0.00,,,0.91,VWS V14.01,2013-05-27 03:35:00,
2013-05-26 22:40:00,54.3,53.8,28.67,NE,45,16.1,21.9,98,0.00,,,0.91,VWS V14.01,2013-05-27 03:40:00,
2013-05-26 22:45:00,54.3,53.8,28.67,NE,45,17.2,20.1,98,0.00,,,0.91,VWS V14.01,2013-05-27 03:45:00,
2013-05-26 22:50:00,54.3,53.8,28.67,ENE,68,13.9,22.6,98,0.00,,,0.91,VWS V14.01,2013-05-27 03:50:00,
2013-05-26 22:55:00,54.3,53.8,28.70,ENE,68,17.5,19.5,98,0.00,,,0.91,VWS V14.01,2013-05-27 03:55:00,
2013-05-26 23:00:00,54.3,53.8,28.70,ENE,68,19.7,21.3,98,0.00,,,0.91,VWS V14.01,2013-05-27 04:00:00,
2013-05-26 23:05:00,54.3,53.8,28.70,ENE,68,10.7,19.7,98,0.00,,,0.91,VWS V14.01,2013-05-27 04:05:00,
2013-05-26 23:10:00,54.3,53.8,28.67,ENE,68,15.2,18.6,98,0.00,,,0.91,VWS V14.01,2013-05-27 04:10:00,
2013-05-26 23:15:00,54.3,53.8,28.67,NE,45,19.9,21.0,98,0.00,,,0.91,VWS V14.01,2013-05-27 04:15:00,
2013-05-26 23:20:00,54.3,53.8,28.67,ENE,68,19.7,25.1,98,0.00,,,0.91,VWS V14.01,2013-05-27 04:20:00,
2013-05-26 23:25:00,54.3,53.8,28.70,NE,45,14.1,22.8,98,0.00,,,0.91,VWS V14.01,2013-05-27 04:25:00,
2013-05-26 23:30:00,54.3,53.8,28.70,ENE,68,16.8,21.9,98,0.00,,,0.91,VWS V14.01,2013-05-27 04:30:00,
2013-05-26 23:35:00,54.3,53.8,28.70,NE,45,15.4,17.2,98,0.00,,,0.91,VWS V14.01,2013-05-27 04:35:00,
2013-05-26 23:40:00,54.5,54.0,28.67,ENE,68,19.9,22.6,98,0.00,,,0.91,VWS V14.01,2013-05-27 04:40:00,
2013-05-26 23:45:00,54.5,54.0,28.67,ENE,68,17.0,19.9,98,0.00,,,0.91,VWS V14.01,2013-05-27 04:45:00,
2013-05-26 23:50:00,54.5,54.0,28.67,NNW,338,3.1,17.0,98,0.08,,,0.99,VWS V14.01,2013-05-27 04:50:00,
2013-05-26 23:55:00,54.5,54.0,28.73,NNE,22,8.5,10.7,98,0.25,,,1.16,VWS V14.01,2013-05-27 04:55:00,